Allentown, PA

11:11 AM EST on December 10, 2019 (GMT -0500)
Allentown

Weather History for KXLL - October, 2019

Change the Weather History Date:

Sunday, October 20, 2019

  Actual Average (KABE) Record (KABE)
Temperature  
Mean Temperature 46 °F -  
Max Temperature 51 °F 60 °F 78 °F (1936)
Min Temperature 41 °F 40 °F 24 °F (1972)
Degree Days  
Heating Degree Days 19    
Moisture  
Dew Point 46 °F    
Average Humidity 96    
Maximum Humidity 100    
Minimum Humidity 87    
Precipitation  
Precipitation 0.39 in - - ()
Sea Level Pressure  
Sea Level Pressure 30.02 in    
Wind  
Wind Speed 2 mph ()    
Max Wind Speed 8 mph    
Max Gust Speed -    
Visibility 7.5 miles    
Events Rain    
Averages and records for this station are not official NWS values.
T = Trace of Precipitation, MM = Missing Value Source: Averaged Metar Reports

Daily Weather History Graph

Daily Weather History Graph

Search for Another Location

Airport or City:

Astronomy

Oct. 20, 2019 Rise Set
Actual Time 7:18 AM EDT 6:14 PM EDT
Civil Twilight 6:50 AM EDT 6:42 PM EDT
Nautical Twilight 6:18 AM EDT 7:14 PM EDT
Astronomical Twilight 5:47 AM EDT 7:45 PM EDT
Moon 11:20 PM EDT (10/20) 1:45 PM EDT (10/20)
Length of Visible Light 11h 51m
Length of Day
10h 56m
Waning Gibbous, 59% of the Moon is Illuminated
Oct 20
Waning Gibbous
Oct 21
Last Quarter
Oct 27
New
Nov 4
First Quarter
Nov 12
Full

Hourly Weather History & Observations

Time (EDT) Temp. Windchill Dew Point Humidity Pressure Visibility Wind Dir Wind Speed Gust Speed Precip Events Conditions
12:15 AM 44.6 °F - 41.0 °F 87% 30.04 in 10.0 mi Calm Calm - N/A   Clear
12:35 AM 44.6 °F - 41.0 °F 87% 30.04 in 10.0 mi Calm Calm - N/A   Clear
12:55 AM 42.8 °F - 41.0 °F 93% 30.04 in 10.0 mi Calm Calm - N/A   Clear
1:15 AM 44.6 °F - 41.0 °F 87% 30.04 in 10.0 mi Calm Calm - N/A   Clear
1:35 AM 42.8 °F - 41.0 °F 93% 30.03 in 10.0 mi Calm Calm - N/A   Clear
1:55 AM 42.8 °F - 41.0 °F 93% 30.04 in 10.0 mi Calm Calm - N/A   Clear
2:15 AM 42.8 °F - 41.0 °F 93% 30.03 in 10.0 mi Calm Calm - N/A   Clear
2:35 AM 42.8 °F - 41.0 °F 93% 30.03 in 10.0 mi Calm Calm - N/A   Clear
2:55 AM 42.8 °F - 41.0 °F 93% 30.03 in 10.0 mi Calm Calm - N/A   Clear
3:15 AM 42.8 °F - 41.0 °F 93% 30.02 in 10.0 mi Calm Calm - N/A   Clear
3:35 AM 42.8 °F - 41.0 °F 93% 30.02 in 10.0 mi Calm Calm - N/A   Clear
3:55 AM 42.8 °F 41.1 °F 41.0 °F 93% 30.01 in 10.0 mi NNE 3.5 mph - N/A   Clear
4:15 AM 42.8 °F 40.1 °F 41.0 °F 93% 30.01 in 10.0 mi NNE 4.6 mph - N/A   Clear
4:35 AM 42.8 °F - 41.0 °F 93% 30.01 in 10.0 mi Calm Calm - N/A   Clear
4:55 AM 41.0 °F - 39.2 °F 93% 30.01 in 10.0 mi Calm Calm - N/A   Clear
5:15 AM 41.0 °F - 39.2 °F 93% 30.02 in 10.0 mi Calm Calm - N/A   Clear
5:35 AM 41.0 °F - 39.2 °F 93% 30.01 in 10.0 mi Calm Calm - N/A   Clear
5:55 AM 41.0 °F - 41.0 °F 100% 30.02 in 10.0 mi Calm Calm - N/A   Clear
6:15 AM 42.8 °F 41.1 °F 41.0 °F 93% 30.01 in 10.0 mi NE 3.5 mph - N/A   Clear
6:35 AM 41.0 °F - 41.0 °F 100% 30.02 in 10.0 mi Calm Calm - N/A   Scattered Clouds
6:55 AM 42.8 °F - 41.0 °F 93% 30.02 in 10.0 mi Calm Calm - N/A   Mostly Cloudy
7:15 AM 42.8 °F - 41.0 °F 93% 30.02 in 10.0 mi Calm Calm - N/A   Overcast
7:35 AM 42.8 °F - 41.0 °F 93% 30.03 in 10.0 mi Calm Calm - N/A   Overcast
7:55 AM 44.6 °F - 42.8 °F 93% 30.03 in 10.0 mi Calm Calm - N/A   Overcast
8:15 AM 44.6 °F - 42.8 °F 93% 30.04 in 10.0 mi Calm Calm - N/A   Overcast
8:35 AM 44.6 °F 43.1 °F 42.8 °F 93% 30.04 in 10.0 mi NNE 3.5 mph - N/A   Overcast
8:55 AM 44.6 °F 42.2 °F 42.8 °F 93% 30.04 in 10.0 mi North 4.6 mph - N/A   Overcast
9:15 AM 46.4 °F - 42.8 °F 87% 30.05 in 10.0 mi Calm Calm - N/A   Overcast
9:35 AM 46.4 °F - 42.8 °F 87% 30.05 in 10.0 mi Calm Calm - N/A   Light Drizzle
9:55 AM 46.4 °F - 42.8 °F 87% 30.05 in 10.0 mi Calm Calm - N/A   Light Drizzle
10:15 AM 46.4 °F 45.2 °F 42.8 °F 87% 30.04 in 10.0 mi NNE 3.5 mph - N/A Rain Light Rain
10:35 AM 46.4 °F - 44.6 °F 93% 30.04 in 10.0 mi Calm Calm - N/A Rain Light Rain
10:55 AM 46.4 °F - 44.6 °F 93% 30.05 in 10.0 mi Calm Calm - N/A Rain Light Rain
11:15 AM 46.4 °F - 44.6 °F 93% 30.06 in 4.0 mi Calm Calm - N/A Rain Rain
11:35 AM 46.4 °F - 44.6 °F 93% 30.07 in 5.0 mi Calm Calm - N/A Rain Light Rain
11:55 AM 46.4 °F - 44.6 °F 93% 30.06 in 7.0 mi Calm Calm - N/A Rain Light Rain
12:15 PM 48.2 °F - 46.4 °F 93% 30.06 in 5.0 mi Calm Calm - N/A Rain Light Rain
12:35 PM 48.2 °F - 46.4 °F 93% 30.05 in 5.0 mi NE 4.6 mph - N/A Rain Light Rain
12:55 PM 48.2 °F - 48.2 °F 100% 30.04 in 4.0 mi NNE 3.5 mph - N/A Rain Rain
1:15 PM 50.0 °F - 48.2 °F 94% 30.03 in 4.0 mi North 4.6 mph - N/A Rain Rain
1:35 PM 50.0 °F - 50.0 °F 100% 30.02 in 4.0 mi NNE 4.6 mph - N/A Rain Light Rain
1:55 PM 50.0 °F - 50.0 °F 100% 30.02 in 4.0 mi NNE 4.6 mph - 0.01 in Rain Rain
2:15 PM 50.0 °F - 50.0 °F 100% 30.01 in 3.0 mi NNE 4.6 mph - N/A Rain Light Rain
2:35 PM 50.0 °F - 50.0 °F 100% 30.00 in 3.0 mi NNE 6.9 mph - N/A Rain Rain
2:55 PM 50.0 °F - 50.0 °F 100% 29.99 in 4.0 mi NNE 5.8 mph - N/A Rain Light Rain
3:15 PM 51.8 °F - 50.0 °F 94% 29.99 in 4.0 mi NNE 6.9 mph - N/A Rain Rain
3:35 PM 51.8 °F - 50.0 °F 94% 29.99 in 4.0 mi NNE 5.8 mph - 0.02 in Rain Light Rain
3:55 PM 51.8 °F - 51.8 °F 100% 29.99 in 4.0 mi NNE 6.9 mph - 0.02 in   Drizzle
4:15 PM 51.8 °F - 51.8 °F 100% 29.99 in 5.0 mi NE 6.9 mph - 0.02 in Rain Light Rain
4:35 PM 51.8 °F - 51.8 °F 100% 29.99 in 4.0 mi NE 6.9 mph - 0.02 in Rain Light Rain
4:55 PM 51.8 °F - 51.8 °F 100% 29.99 in 5.0 mi NNE 5.8 mph - 0.04 in Rain Light Rain
5:15 PM 51.8 °F - 51.8 °F 100% 29.99 in 5.0 mi NNE 8.1 mph - N/A Rain Light Rain
5:35 PM 51.8 °F - 51.8 °F 100% 29.99 in 7.0 mi NE 6.9 mph - 0.02 in   Light Drizzle
5:55 PM 51.8 °F - 51.8 °F 100% 29.99 in 7.0 mi NNE 5.8 mph - 0.04 in   Overcast
6:15 PM 51.8 °F - 51.8 °F 100% 29.99 in 7.0 mi NNE 6.9 mph - N/A   Drizzle
6:35 PM 51.8 °F - 51.8 °F 100% 29.98 in 7.0 mi NNE 5.8 mph - 0.02 in   Light Drizzle
6:55 PM 51.8 °F - 51.8 °F 100% 29.98 in 7.0 mi NNE 6.9 mph - 0.02 in Rain Light Rain
7:15 PM 51.8 °F - 51.8 °F 100% 29.99 in 5.0 mi NE 6.9 mph - 0.02 in   Drizzle
7:35 PM 51.8 °F - 51.8 °F 100% 29.99 in 7.0 mi NE 6.9 mph - 0.02 in Rain Rain
7:55 PM 51.8 °F - 51.8 °F 100% 29.99 in 5.0 mi NNE 5.8 mph - 0.04 in Rain Rain
8:15 PM 51.8 °F - 51.8 °F 100% 29.99 in 5.0 mi NNE 6.9 mph - 0.02 in Rain Light Rain
8:35 PM 51.8 °F - 51.8 °F 100% 29.99 in 5.0 mi NNE 5.8 mph - 0.04 in Rain Rain
8:55 PM 51.8 °F - 51.8 °F 100% 29.99 in 5.0 mi NNE 4.6 mph - 0.06 in Rain Light Rain
9:15 PM 51.8 °F - 51.8 °F 100% 29.99 in 5.0 mi NNE 4.6 mph - 0.02 in Rain Rain
9:35 PM 51.8 °F - 51.8 °F 100% 29.99 in 5.0 mi NE 4.6 mph - 0.04 in Rain Light Rain
9:55 PM 51.8 °F - 51.8 °F 100% 29.99 in 5.0 mi NE 4.6 mph - 0.06 in   Light Drizzle
10:15 PM 51.8 °F - 51.8 °F 100% 30.00 in 7.0 mi NNE 4.6 mph - 0.02 in Rain Light Rain
10:35 PM 51.8 °F - 51.8 °F 100% 30.00 in 7.0 mi NNE 4.6 mph - 0.04 in Rain Rain
10:55 PM 51.8 °F - 51.8 °F 100% 30.00 in 7.0 mi NE 3.5 mph - 0.06 in   Overcast
11:15 PM 51.8 °F - 51.8 °F 100% 30.01 in 7.0 mi Calm Calm - N/A   Overcast
11:35 PM 51.8 °F - 51.8 °F 100% 29.99 in 7.0 mi NNE 8.1 mph - 0.02 in   Overcast
11:55 PM 51.8 °F - 51.8 °F 100% 29.99 in 7.0 mi NE 3.5 mph - 0.04 in   Overcast